Weather History for MMCU - February, 2014

Change the Weather History Date:

Thursday, February 6, 2014

  Actual Average Record
Temperature  
Mean Temperature 42 °F -  
Max Temperature 60 °F 69 °F 84 °F (2009)
Min Temperature 28 °F 36 °F 19 °F (2008)
Degree Days  
Heating Degree Days 22    
Moisture  
Dew Point 20 °F    
Average Humidity 41    
Maximum Humidity 59    
Minimum Humidity 27    
Precipitation  
Precipitation 0.00 in - - ()
Sea Level Pressure  
Sea Level Pressure 30.05 in    
Wind  
Wind Speed 5 mph ()    
Max Wind Speed 12 mph    
Max Gust Speed -    
Visibility 8.0 miles    
Events      
Averages and records for this station are not official NWS values.
T = Trace of Precipitation, MM = Missing Value Source: Averaged Metar Reports

Daily Weather History Graph

Daily Weather History Graph

Search for Another Location

Airport or City:

Trip Planner

Search our weather history database for the weather conditions in past years. The results will help you decide how hot, cold, wet, or windy it might be!

Date:

Astronomy

Feb. 06, 2014 Rise Set
Actual Time 6:48 AM MST 5:47 PM MST
Civil Twilight 6:24 AM MST 6:11 PM MST
Nautical Twilight 5:56 AM MST 6:39 PM MST
Astronomical Twilight 5:28 AM MST 7:07 PM MST
Moon 11:22 AM MST (2/6) 12:07 AM MST (2/6)
Length of Visible Light 11h 47m
Length of Day
10h 58m
Waxing Crescent, 50% of the Moon is Illuminated
Feb 6
Waxing Crescent
Feb 6
First Quarter
Feb 14
Full
Feb 22
Last Quarter
Mar 1
New

Hourly Weather History & Observations

Time (MST) Temp. Windchill Dew Point Humidity Pressure Visibility Wind Dir Wind Speed Gust Speed Precip Events Conditions
1:45 AM 35 °F - 22 °F 45% 29.91 in 1 mi NNE 6.7 mph - -  
4:40 AM 26.6 °F 21.2 °F 12.2 °F 55% 30.09 in 10.0 mi WNW 4.6 mph - N/A   Clear
4:45 AM 31 °F - 19 °F 49% 30.01 in 1 mi NNE 6.7 mph - -  
5:42 AM 24.8 °F 20.5 °F 12.2 °F 59% 30.15 in 10.0 mi WNW 3.5 mph - N/A   Clear
7:40 AM 26.6 °F - 14.0 °F 59% 30.22 in 10.0 mi Calm Calm - N/A   Clear
7:42 AM 31 °F - 20 °F 51% 30.12 in 6 mi NE 2.2 mph - -  
8:40 AM 32.0 °F - 14.0 °F 48% 30.19 in 10.0 mi Calm Calm - N/A   Clear
9:40 AM 35.6 °F 32.8 °F 17.6 °F 48% 30.18 in 10.0 mi NNE 3.5 mph - N/A   Clear
10:40 AM 42.8 °F 38.6 °F 17.6 °F 36% 30.15 in 10.0 mi NE 6.9 mph - N/A   Clear
10:42 AM 44 °F - 25 °F 33% 30.13 in 6 mi ENE 4.5 mph - -  
11:40 AM 46.4 °F 42.4 °F 19.4 °F 34% 30.14 in 10.0 mi NNE 8.1 mph - N/A   Clear
12:40 PM 48.2 °F - 21.2 °F 34% 30.10 in 10.0 mi NE 11.5 mph - N/A   Partly Cloudy
1:40 PM 53.6 °F - 21.2 °F 28% 30.02 in 10.0 mi ENE 11.5 mph - N/A   Scattered Clouds
2:40 PM 57.2 °F - 23.0 °F 27% 30.00 in 10.0 mi ENE 9.2 mph - N/A   Mostly Cloudy
3:40 PM 57.2 °F - 23.0 °F 27% 29.97 in 10.0 mi ESE 8.1 mph - N/A   Mostly Cloudy
4:40 PM 57.2 °F - 26.6 °F 31% 29.97 in 10.0 mi ENE 11.5 mph - N/A   Scattered Clouds
5:40 PM 51.8 °F - 23.0 °F 33% 29.99 in 10.0 mi NNE 5.8 mph - N/A   Scattered Clouds
6:40 PM 46.4 °F 43.5 °F 21.2 °F 37% 30.01 in 10.0 mi North 5.8 mph - N/A   Scattered Clouds
7:40 PM 49 °F - 27 °F 30% 29.89 in 1 mi South 4.5 mph - -  
7:42 PM 41.0 °F 37.1 °F 19.4 °F 42% 30.09 in 10.0 mi NNE 5.8 mph - N/A   Scattered Clouds
8:40 PM 39.2 °F 35.0 °F 19.4 °F 45% 30.04 in 10.0 mi NW 5.8 mph - N/A   Scattered Clouds
10:40 PM 38 °F - 23 °F 41% 29.81 in 1 mi NNE 2.2 mph - -